[[{"header":{"parameterUnit":"m.s-1","parameterCategory":1,"la1":30.2991,"la2":30.254,"lo1":-89.0895,"lo2":-89.0444,"dy":0.0017,"dx":0.0017,"nx":28,"ny":28,"refTime":"2025-12-31T09:00:00:Z","depth":0,"parameterNumber":2,"parameterNumberName":"U-component_of_WINDS"},"data":[0,0,0,0,0,0,0,0,0,0,0,0,0,0,0,0,0,0,0,0,0,0,0,0,0,0,0,0,0,0,0,0,0,0,0,0,0,0,0,0,0,0,0,0,0,0,0,0,0,0,0,0,0,0,0,0,0,0,0.5131,0.5131,0,0.5094,0.5093,0.5093,0.5079,0.5079,0.5079,0.5079,0.5038,0.5037,0.5036,0,0,0,0,0,0,0,0,0,0,0,0,0,0.519,0.5189,0.5131,0.5131,0.513,0.5094,0.5093,0.5093,0.5079,0.5079,0.5079,0.5079,0.5039,0.5037,0.5036,0,0,0,0,0,0,0,0,0,0,0,0,0,0.516,0.5189,0.5131,0.5119,0.5118,0.5094,0.5093,0.5092,0.5079,0.5079,0.5079,0.5079,0.5039,0.5038,0.5036,0.502,0,0,0.503,0.5029,0,0,0,0,0,0,0,0,0.5161,0.5157,0.5121,0.512,0.5118,0.5091,0.5099,0.5068,0.5079,0.5094,0.5079,0.508,0.5056,0.5053,0.5045,0.5019,0.5017,0.503,0.5029,0.5028,0.5028,0,0,0,0,0,0,0,0.5163,0.5159,0.5116,0.5121,0.5119,0.5115,0.5111,0.5093,0.5074,0.5092,0.5091,0.5087,0.5055,0.5047,0.5044,0.5016,0.503,0.5028,0.5027,0.5027,0.4976,0.4976,0,0,0,0,0,0,0.5168,0.5161,0.5117,0.5115,0.5141,0.5114,0.5109,0.51,0.5074,0.507,0.5087,0.5087,0.505,0.5046,0.5042,0.5023,0.5028,0.5026,0.5025,0.4976,0.4976,0.4976,0,0,0,0,0,0,0.5169,0.5164,0.5119,0.5138,0.5132,0.5113,0.5102,0.5099,0.5091,0.507,0.5066,0.5082,0.505,0.5045,0.5026,0.5021,0.5026,0.5024,0.4977,0.4976,0.4976,0.4984,0,0,0,0,0,0,0.5171,0.5165,0.5159,0.5138,0.5131,0.5104,0.5102,0.5098,0.5088,0.5087,0.5065,0.5061,0.505,0.5029,0.5025,0.5019,0.5023,0.4977,0.4976,0.4976,0.4984,0.4984,0.4984,0,0,0,0,0,0.5173,0.5162,0.5159,0.5154,0.5123,0.5104,0.51,0.5087,0.5088,0.5081,0.5068,0.5062,0.5023,0.5027,0.5022,0.5016,0.4977,0.4977,0.4976,0.4984,0.4984,0.4984,0,0,0,0,0,0,0.5182,0.5159,0.5155,0.5137,0.5123,0.5101,0.5093,0.5087,0.5072,0.5072,0.5056,0.5051,0.5034,0.5023,0.5028,0.5,0.5,0.4998,0.5008,0.5007,0.5007,0.501,0.5021,0,0,0,0,0,0.5182,0.5169,0.5149,0.5135,0.5129,0.5112,0.5103,0.5095,0.5079,0.5073,0.5058,0.5042,0.5027,0.5017,0.5001,0.4983,0.4978,0.4976,0.4976,0.4976,0.4975,0.4965,0.4964,0.4974,0.4974,0.4974,0,0,0.5182,0.5168,0.516,0.5137,0.5125,0.5111,0.5107,0.5092,0.5082,0.507,0.5052,0.5041,0.5022,0.5004,0.4995,0.4995,0.4971,0.4975,0.4976,0.4974,0.4964,0.4963,0.4962,0.4973,0.4974,0.4974,0,0,0.5174,0.5163,0.515,0.5138,0.512,0.511,0.5107,0.5087,0.5079,0.5061,0.5052,0.5039,0.5012,0.5,0.499,0.4979,0.4972,0.4974,0.4973,0.4964,0.4963,0.4962,0.4958,0.4957,0.4973,0.4973,0.4973,0,0.5176,0.5155,0.5144,0.513,0.512,0.511,0.5097,0.5086,0.5063,0.5056,0.5056,0.5023,0.501,0.4989,0.4986,0.4978,0.4974,0.4976,0.4964,0.4963,0.4962,0.4958,0.4957,0.4973,0.4973,0.4973,0.4973,0,0.5158,0.5144,0.5136,0.5116,0.5105,0.5091,0.5077,0.5068,0.5061,0.5051,0.5032,0.5016,0.4998,0.4992,0.4985,0.497,0.497,0.4967,0.4966,0.4962,0.4958,0.4956,0.4974,0.4973,0.4973,0.4973,0,0,0.5154,0.5129,0.5126,0.5117,0.5097,0.5086,0.5072,0.5054,0.5046,0.5032,0.5019,0.4998,0.4995,0.4984,0.4975,0.4967,0.496,0.4965,0.4964,0.4964,0.4942,0.4945,0.4943,0.4955,0.4955,0.4955,0.4944,0,0.5144,0.512,0.5109,0.5089,0.5076,0.5067,0.5055,0.5042,0.5032,0.5019,0.5007,0.4992,0.499,0.4983,0.4975,0.4962,0.4955,0.4963,0.4943,0.4943,0.4948,0.4941,0.4943,0.4933,0.4942,0.4942,0.4942,0,0.5128,0.5114,0.5094,0.5076,0.507,0.506,0.5043,0.5031,0.5016,0.5009,0.4997,0.4989,0.4974,0.4975,0.4954,0.496,0.4951,0.4944,0.4943,0.4941,0.4942,0.4938,0.493,0.4928,0.4939,0.494,0.494,0,0.5127,0.5104,0.5088,0.5081,0.506,0.5053,0.5044,0.5028,0.5019,0.5004,0.4998,0.4982,0.4973,0.496,0.4948,0.495,0.4928,0.4928,0.4922,0.4922,0.4917,0.4917,0.4907,0.4912,0.4912,0.4912,0.4912,0,0.5116,0.5104,0.5088,0.5078,0.5064,0.5052,0.5038,0.5028,0.5015,0.5003,0.4995,0.4983,0.4968,0.4955,0.4946,0.493,0.4926,0.492,0.4917,0.492,0.4921,0.4914,0.4914,0.4912,0.4912,0.4912,0.4912,0,0.5113,0.5101,0.5084,0.5066,0.5061,0.5052,0.5036,0.5026,0.5017,0.5002,0.4998,0.4982,0.4966,0.4953,0.4932,0.4926,0.491,0.4907,0.4915,0.4914,0.4908,0.4909,0.4893,0.4891,0.4898,0.4898,0.4898,0,0.5106,0.5097,0.5078,0.507,0.5061,0.5048,0.5039,0.5027,0.5018,0.5,0.4992,0.4976,0.4963,0.4938,0.4925,0.4909,0.4905,0.4901,0.4903,0.4906,0.4905,0.4906,0.4905,0.4901,0.4901,0.4901,0.4901,0,0.5096,0.5091,0.5078,0.5064,0.5053,0.5041,0.5028,0.5022,0.5008,0.4998,0.4982,0.4972,0.4951,0.4935,0.4918,0.4908,0.4902,0.49,0.4898,0.4901,0.4906,0.4903,0.4914,0.49,0.4901,0.4901,0.4901,0.4901,0.509,0.5082,0.5068,0.5054,0.5044,0.5032,0.5023,0.5012,0.4999,0.4982,0.4976,0.496,0.4945,0.4922,0.4912,0.4899,0.4898,0.4895,0.4894,0.4893,0.4894,0.4909,0.4896,0.4896,0.4896,0.4896,0.4896,0,0.508,0.5071,0.5058,0.5041,0.5031,0.5027,0.5013,0.5004,0.499,0.4978,0.4965,0.4947,0.4932,0.4918,0.4902,0.4895,0.4891,0.4891,0.4891,0.4889,0.4895,0.4899,0.4894,0.4894,0.4894,0.4894,0.4894,0.4894,0.5073,0.5058,0.5052,0.5032,0.5022,0.5007,0.5,0.4989,0.4979,0.496,0.4948,0.4939,0.4926,0.4909,0.4895,0.4891,0.4886,0.4886,0.4881,0.4888,0.4888,0.4888,0.4892,0.4885,0.4885,0.4875,0.4875,0.4875]},{"header":{"parameterUnit":"m.s-1","parameterCategory":1,"la1":30.2991,"la2":30.254,"lo1":-89.0895,"lo2":-89.0444,"dy":0.0017,"dx":0.0017,"nx":28,"ny":28,"refTime":"2025-12-31T09:00:00:Z","depth":0,"parameterNumber":3,"parameterNumberName":"V-component_of_WINDS"},"data":[0,0,0,0,0,0,0,0,0,0,0,0,0,0,0,0,0,0,0,0,0,0,0,0,0,0,0,0,0,0,0,0,0,0,0,0,0,0,0,0,0,0,0,0,0,0,0,0,0,0,0,0,0,0,0,0,0,0,-2.0652,-2.0653,0,-2.0759,-2.076,-2.0762,-2.0741,-2.0739,-2.0737,-2.0735,-2.0845,-2.0849,-2.0854,0,0,0,0,0,0,0,0,0,0,0,0,0,-2.0429,-2.0433,-2.0652,-2.0653,-2.0654,-2.0759,-2.076,-2.0762,-2.0741,-2.0739,-2.0736,-2.0734,-2.0843,-2.0849,-2.0854,0,0,0,0,0,0,0,0,0,0,0,0,0,-2.053,-2.0434,-2.0651,-2.0656,-2.0658,-2.0759,-2.076,-2.0762,-2.0741,-2.0739,-2.0736,-2.0733,-2.0841,-2.0848,-2.0855,-2.0957,0,0,-2.0877,-2.088,0,0,0,0,0,0,0,0,-2.0524,-2.0538,-2.0654,-2.0656,-2.0658,-2.0733,-2.0722,-2.0828,-2.0742,-2.071,-2.0735,-2.0731,-2.081,-2.0819,-2.0846,-2.0962,-2.0967,-2.0877,-2.0882,-2.0885,-2.0887,0,0,0,0,0,0,0,-2.0517,-2.0533,-2.0694,-2.0656,-2.0658,-2.0654,-2.0665,-2.0742,-2.0775,-2.0712,-2.0711,-2.0724,-2.081,-2.0839,-2.0848,-2.0969,-2.0877,-2.0883,-2.0888,-2.0891,-2.1176,-2.1179,0,0,0,0,0,0,-2.0508,-2.0528,-2.0691,-2.0697,-2.0583,-2.066,-2.0672,-2.0712,-2.0774,-2.0781,-2.0726,-2.0723,-2.0828,-2.084,-2.0852,-2.0978,-2.0885,-2.0891,-2.0895,-2.1173,-2.1177,-2.118,0,0,0,0,0,0,-2.0504,-2.0523,-2.0686,-2.0612,-2.0633,-2.0667,-2.0712,-2.0716,-2.0745,-2.0785,-2.079,-2.075,-2.0827,-2.0842,-2.0932,-2.0981,-2.0894,-2.0901,-2.1169,-2.1174,-2.1179,-2.1228,0,0,0,0,0,0,-2.0497,-2.0522,-2.0561,-2.0613,-2.0637,-2.0764,-2.0715,-2.072,-2.0757,-2.0753,-2.0808,-2.0814,-2.0825,-2.0921,-2.0939,-2.0989,-2.0906,-2.1165,-2.1171,-2.1177,-2.1222,-2.1234,-2.1244,0,0,0,0,0,-2.0489,-2.057,-2.0563,-2.0582,-2.0686,-2.0767,-2.078,-2.0792,-2.0761,-2.0801,-2.0827,-2.0813,-2.0972,-2.093,-2.095,-2.1003,-2.1162,-2.1169,-2.1176,-2.1217,-2.1232,-2.1244,0,0,0,0,0,0,-2.0522,-2.0577,-2.0569,-2.0669,-2.0714,-2.0763,-2.0814,-2.0806,-2.086,-2.0855,-2.0866,-2.0879,-2.097,-2.0995,-2.0948,-2.1106,-2.1063,-2.1074,-2.1087,-2.1101,-2.1112,-2.1105,-2.0912,0,0,0,0,0,-2.054,-2.0601,-2.0646,-2.073,-2.0752,-2.0779,-2.0815,-2.082,-2.0866,-2.0885,-2.0917,-2.0963,-2.1024,-2.1063,-2.1121,-2.1225,-2.1238,-2.1271,-2.1282,-2.1291,-2.1302,-2.1361,-2.1377,-2.1205,-2.1205,-2.1205,0,0,-2.0579,-2.0617,-2.0655,-2.0737,-2.0772,-2.0836,-2.0795,-2.0864,-2.0911,-2.0895,-2.0983,-2.1008,-2.106,-2.1157,-2.1202,-2.1181,-2.1352,-2.1301,-2.1308,-2.1314,-2.137,-2.1386,-2.1401,-2.121,-2.1209,-2.1208,0,0,-2.0684,-2.0718,-2.0792,-2.0828,-2.0882,-2.09,-2.0918,-2.0969,-2.0986,-2.1073,-2.1063,-2.1119,-2.1223,-2.1261,-2.1294,-2.1414,-2.1404,-2.1432,-2.149,-2.1548,-2.1561,-2.1573,-2.1618,-2.1634,-2.1442,-2.1442,-2.1442,0,-2.0726,-2.0821,-2.0831,-2.0902,-2.0939,-2.0927,-2.1003,-2.1038,-2.1108,-2.1134,-2.1109,-2.124,-2.1274,-2.1382,-2.1411,-2.1437,-2.1459,-2.1427,-2.1558,-2.1571,-2.1582,-2.1625,-2.1641,-2.1445,-2.1445,-2.1445,-2.1444,0,-2.0871,-2.0938,-2.0991,-2.106,-2.1103,-2.1175,-2.1197,-2.1239,-2.124,-2.1261,-2.1351,-2.1391,-2.1458,-2.1483,-2.1484,-2.1591,-2.1577,-2.1555,-2.1512,-2.1602,-2.1642,-2.1658,-2.145,-2.1449,-2.1448,-2.1447,0,0,-2.1,-2.1074,-2.1093,-2.1125,-2.1184,-2.1236,-2.1308,-2.1374,-2.141,-2.1459,-2.1521,-2.1609,-2.159,-2.1627,-2.1633,-2.1683,-2.1778,-2.1655,-2.1657,-2.1678,-2.19,-2.1918,-2.1937,-2.177,-2.1774,-2.1776,-2.1897,0,-2.1111,-2.124,-2.1251,-2.1366,-2.1429,-2.1419,-2.1482,-2.1526,-2.1547,-2.1603,-2.1625,-2.1689,-2.1658,-2.168,-2.1729,-2.1756,-2.1823,-2.1747,-2.183,-2.1832,-2.1819,-2.1957,-2.1976,-2.2088,-2.1912,-2.1915,-2.1917,0,-2.1259,-2.1313,-2.1435,-2.1486,-2.1513,-2.157,-2.1632,-2.1685,-2.1734,-2.1746,-2.1788,-2.1787,-2.1862,-2.1815,-2.192,-2.1868,-2.1902,-2.192,-2.1925,-2.1935,-2.1882,-2.1973,-2.2123,-2.2141,-2.1941,-2.194,-2.1938,0,-2.1343,-2.1445,-2.1532,-2.1559,-2.1621,-2.1662,-2.1689,-2.1736,-2.1775,-2.1829,-2.1855,-2.1916,-2.195,-2.1998,-2.2015,-2.1978,-2.2119,-2.2073,-2.2132,-2.2132,-2.2164,-2.2162,-2.2324,-2.2183,-2.2182,-2.2182,-2.2182,0,-2.1467,-2.1543,-2.1571,-2.1625,-2.1709,-2.1722,-2.1805,-2.1831,-2.1872,-2.1931,-2.1925,-2.1981,-2.1998,-2.2056,-2.2069,-2.2155,-2.217,-2.2182,-2.2185,-2.2184,-2.2183,-2.2208,-2.2202,-2.2187,-2.2186,-2.2185,-2.2184,0,-2.1576,-2.1598,-2.1692,-2.1743,-2.1758,-2.1818,-2.1862,-2.1914,-2.1934,-2.2009,-2.2027,-2.2059,-2.2127,-2.2148,-2.223,-2.2239,-2.234,-2.2335,-2.2324,-2.2325,-2.2384,-2.2379,-2.257,-2.2597,-2.2435,-2.2437,-2.2438,0,-2.1655,-2.1713,-2.1771,-2.181,-2.184,-2.1903,-2.1943,-2.1957,-2.1999,-2.2061,-2.2106,-2.2174,-2.2229,-2.2339,-2.237,-2.2433,-2.2431,-2.2493,-2.244,-2.2438,-2.2434,-2.2432,-2.2439,-2.2504,-2.2505,-2.2507,-2.2508,0,-2.1794,-2.1802,-2.186,-2.1923,-2.1972,-2.2022,-2.207,-2.2102,-2.2124,-2.2172,-2.2242,-2.2285,-2.237,-2.2438,-2.2503,-2.2531,-2.2524,-2.2524,-2.2542,-2.2542,-2.2535,-2.2542,-2.2354,-2.252,-2.2519,-2.2518,-2.2517,-2.2517,-2.1892,-2.1944,-2.1993,-2.2059,-2.2096,-2.2142,-2.2194,-2.2221,-2.228,-2.2351,-2.2355,-2.2432,-2.2481,-2.2567,-2.2599,-2.266,-2.2641,-2.2666,-2.2673,-2.268,-2.2686,-2.2523,-2.2671,-2.2671,-2.267,-2.267,-2.267,0,-2.2032,-2.2063,-2.2124,-2.2192,-2.2244,-2.2232,-2.2285,-2.233,-2.2398,-2.2443,-2.2498,-2.258,-2.2647,-2.2683,-2.2749,-2.2791,-2.2789,-2.2808,-2.2806,-2.2813,-2.2697,-2.2676,-2.2808,-2.2808,-2.2808,-2.2808,-2.2808,-2.2808,-2.2111,-2.22,-2.2214,-2.2321,-2.2351,-2.2427,-2.2459,-2.2501,-2.2538,-2.263,-2.2686,-2.2708,-2.2751,-2.282,-2.2881,-2.289,-2.2916,-2.2937,-2.2944,-2.2835,-2.2821,-2.2808,-2.2788,-2.2942,-2.2942,-2.3056,-2.3057,-2.3058]}]]